Location: ?????????
(38.5999°N, 22.7695°E)
Time: 08:58:50
(UTC+00:00)

Cosmos 371 Rocket - Pass Details

Date: 23 May 2024
Orbit: 679 x 694 km, 74.0° (Epoch: 24 June)

Event Time Altitude Azimuth Distance (km) Brightness Sun altitude
Exits shadow 02:38:52 - 214° (SSW) 2,526 5.6 -6.2°
Reaches altitude 10° 02:39:57 10° 217° (SW) 2,110 5.2 -6.1°
Maximum altitude 02:44:33 49° 292° (WNW) 881 3.6 -5.3°
Drops below altitude 10° 02:49:11 10° 7° (N) 2,126 6.4 -4.5°
Sets 02:51:34 0° 13° (NNE) 3,047 7.3 -4.1°
